weather.gov     
National Weather Service

Regional Weather Roundup
NWS Homepage
This page is being discontinued on March 12, 2014.
The same data is available at this site. Please update your bookmarks.
Thank you, and we apologize for the inconvenience.
Please send an email to SR-SRH.Webmaster@noaa.gov with any concerns.


Current Version
Previous Version:    01  02  03  04  05  06  07  08  09  10  11  12  13  14  15  16  17  18  19  20  21  22  23  24  25  26  27  28  29  30  
   31  32  33  34  35  36  37  38  39  40  41  42  43  44  45  46  47  48  49  50  51  52  53  54  55  56  57  58  59  60  
[Printable]
640
ASUS41 KCLE 311300
RWRCLE
OHIO REGIONAL WEATHER ROUNDUP
NATIONAL WEATHER SERVICE WILMINGTON, OH
900 AM EDT FRI OCT 31 2014

NOTE: "FAIR" INDICATES FEW OR NO CLOUDS BELOW 12,000 FEET WITH NO
SIGNIFICANT WEATHER AND/OR OBSTRUCTIONS TO VISIBILITY.

OHZ001>008-015>018-024>027-034-035-043-044-311400-
   NORTHWEST OHIO

CITY           SKY/WX    TMP DP  RH WIND       PRES   REMARKS
DEFIANCE       LGT RAIN  43  38  82 SW3       29.92S
FINDLAY        CLOUDY    44  36  73 SW9       29.91F
TOLEDO EXPRESS LGT RAIN  42  38  85 SW5       29.90S
TOLEDO METCALF LGT RAIN  44  36  73 SW8       29.92S
LIMA           NOT AVBL
$$

OHZ009>014-019>023-028>033-038-089-311400-
   NORTHEAST OHIO

CITY           SKY/WX    TMP DP  RH WIND       PRES   REMARKS
CLE-HOPKINS    CLOUDY    44  36  73 S7        29.95F
CLE-LAKEFRONT    N/A    N/A N/A N/A MISG        N/A
CUY CO. ARPT   CLOUDY    45  37  76 S8        29.94S
LORAIN-ELYRIA  CLOUDY    43  36  76 SW6       29.93F
ASHTABULA      LGT RAIN  42  39  89 S6        29.95S
AKRON-CANTON   CLOUDY    44  38  79 S3        29.94S
WOOSTER        NOT AVBL
MANSFIELD      CLOUDY    43  35  73 SW7       29.92F
YOUNGSTOWN     LGT RAIN  43  38  82 S3        29.94S
$$

OHZ042-051>053-060>062-070>072-077>081-311400-
  SOUTHWEST OHIO

CITY           SKY/WX    TMP DP  RH WIND       PRES   REMARKS
CINC-COVINGTON CLOUDY    44  39  82 W3        29.97S
CINC-LUNKEN    CLOUDY    43  41  93 CALM      29.99S
HAMILTON       CLOUDY    41  40  96 CALM      29.98F FOG
DAYTON         NOT AVBL
WRIGHT-PAT AFB CLOUDY    43  39  86 S3        29.95F
DAYTON GENERAL MOCLDY    41  39  93 S3        29.95S
WILMINGTON     CLOUDY    41  38  89 S3        29.96S
$$

OHZ036-037-039>041-045>050-054>059-063>069-073>076-082>088-311400-
  CENTRAL AND SOUTHEAST OHIO

CITY           SKY/WX    TMP DP  RH WIND       PRES   REMARKS
COLUMBUS       CLOUDY    42  36  79 S6        29.96S
OSU AIRPORT    CLOUDY    43  36  76 S7        29.95S
BOLTON FIELD   CLOUDY    41  37  87 CALM      29.96S
RICKENBACK AFB NOT AVBL
NEWARK         PTSUNNY   43  37  79 S6        29.96S
MARION         CLOUDY    42  36  79 S6        29.94S
LANCASTER      CLOUDY    43  38  82 S6        29.97S
ZANESVILLE     LGT RAIN  41  38  89 S3        29.97S
NEW PHILLY     LGT RAIN  44  37  76 CALM      29.97S
$$




U.S. Dept. of Commerce
NOAA National Weather Service
1325 East West Highway
Silver Spring, MD 20910
E-mail: w-nws.webmaster@noaa.gov
Page last modified: May 16, 2007
NATIONAL WEATHER SERVICE: for Safety, for Work, for Fun - FOR LIFE